Location: Newark
(46.7000°N, 60.6000°W)
Time: 20:24:12
(UTC+00:00)

Envisat - Pass Details

Date: 27 September 2020
Orbit: 764 x 766 km, 98.1° (Epoch: 20 October)

Event Time Altitude Azimuth Distance (km) Brightness Sun altitude
Rises 08:54:35 0° 28° (NNE) 3,242 6.8 -11.4°
Reaches altitude 10° 08:57:39 10° 47° (NE) 2,310 6.4 -10.9°
Maximum altitude 09:01:04 18° 90° (E) 1,818 6.2 -10.3°
Drops below altitude 10° 09:04:27 10° 132° (SE) 2,297 6.1 -9.7°
Sets 09:07:29 0° 151° (SSE) 3,217 6.5 -9.2°
